{"data":{"norad_id":53210,"intl_designator":"2022-084X","name":"STARLINK-4427","alt_names":[],"object_type":"PAYLOAD","status":"ACTIVE","operator":null,"country":"US","launch_date":"2022-07-22","launch_site_code":"AFWTR","launch_vehicle":null,"mission":null,"orbit_class":"UNKNOWN","rcs_meters":null,"size_class":null,"mass_kg":null,"dimensions":null,"purposes":["comms"],"wikipedia_slug":null,"has_3d_model":false,"image_url":null,"decayed_at":null,"tle_current":{"epoch":"2026-09-20T00:06:35.248896Z","epoch_age_seconds":115074,"freshness":"FRESH","line1":"1 53210U 22084X   26263.00457464  .00001146  00000+0  37834-4 0  9996","line2":"2 53210  97.2840 317.8160 0001200  94.0716 266.0664 15.33438307229155","mean_motion":15.33438307,"eccentricity":0.00012,"inclination_deg":97.284,"raan_deg":317.816,"arg_perigee_deg":94.0716,"mean_anomaly_deg":266.0664,"bstar":3.7834e-5,"rev_number":22915,"period_min":93.906614529358,"perigee_km":464.74184419905,"apogee_km":466.38433222022,"semimajor_km":6843.7000882096,"source":"CELESTRAK","updated_at":"2026-09-20T09:00:40.192995Z"}}}